Location: Kellogg
(38.0159°N, 90.0546°W)
Time: 08:36:40
(UTC+00:00)

S-56A Canister/Altair - Pass Details

Date: 21 September 2024
Orbit: 636 x 2487 km, 38.9° (Epoch: 09 October)

Event Time Altitude Azimuth Distance (km) Brightness Sun altitude
Rises 02:36:58 0° 282° (WNW) 3,407 11.9 -30.7°
Reaches altitude 10° 02:39:07 10° 281° (W) 2,628 11.1 -31.0°
Enters shadow 02:45:25 76° 197° (SSW) 1,242 8.3 -32.1°
Maximum altitude 02:45:25 76° 197° (SSW) 1,242 - -32.1°
Drops below altitude 10° 02:55:07 10° 114° (ESE) 3,945 - -33.8°
Sets 02:59:01 0° 113° (ESE) 5,227 - -34.4°
